When you browse on this site, cookies collect data to enhance your experience and personalize the content and advertising you see.
Visit our Privacy Policy to learn more. By continuing to use the site, you agree to this use of cookies and data.
  • In Romania
  • List of Countries
  • For 7 days
  • Water Temperature
  • Satellite Maps
  • Weather Map
  • Weather Widgets
  • user-avatar
    Login

    Hourly Weather Guduvancheri

    Today, 16 July, Tuesday

    Time Temperature Precipitation Wind Pressure Humidity
    00:00 +32°C° 2.1 mm 4 mps 751 mmHg 70%
    01:00 +31°C° 2.1 mm 3 mps 750 mmHg 70%
    02:00 +31°C° 2.1 mm 3 mps 750 mmHg 70%
    03:00 +30°C° 0.1 mm 3 mps 750 mmHg 71%
    04:00 +30°C° 0.1 mm 2 mps 750 mmHg 72%
    05:00 +29°C° 0 mm 3 mps 750 mmHg 74%
    06:00 +31°C° 0 mm 3 mps 751 mmHg 69%
    07:00 +33°C° 0 mm 3 mps 751 mmHg 63%
    08:00 +34°C° 0 mm 3 mps 751 mmHg 58%
    09:00 +36°C° 0 mm 3 mps 751 mmHg 52%
    10:00 +37°C° 0 mm 4 mps 751 mmHg 46%
    11:00 +38°C° 0 mm 4 mps 751 mmHg 41%
    12:00 +39°C° 0 mm 3 mps 751 mmHg 39%
    13:00 +40°C° 0 mm 3 mps 750 mmHg 36%
    14:00 +40°C° 0 mm 3 mps 749 mmHg 34%
    15:00 +40°C° 0 mm 3 mps 749 mmHg 36%
    16:00 +39°C° 0 mm 3 mps 749 mmHg 38%
    17:00 +39°C° 0 mm 3 mps 749 mmHg 40%
    18:00 +37°C° 0 mm 3 mps 749 mmHg 47%
    19:00 +36°C° 0 mm 4 mps 749 mmHg 54%
    20:00 +34°C° 0 mm 4 mps 750 mmHg 61%
    21:00 +33°C° 0.7 mm 5 mps 750 mmHg 66%
    22:00 +30°C° 0.7 mm 5 mps 751 mmHg 72%
    23:00 +29°C° 0.7 mm 6 mps 751 mmHg 77%

    Tomorrow, 17 July, Wednesday

    Time Temperature Precipitation Wind Pressure Humidity
    00:00 +29°C° 1.7 mm 6 mps 751 mmHg 79%
    01:00 +28°C° 1.7 mm 6 mps 750 mmHg 81%
    02:00 +28°C° 1.7 mm 6 mps 750 mmHg 83%
    03:00 +28°C° 0.7 mm 6 mps 750 mmHg 80%
    04:00 +29°C° 0.7 mm 5 mps 750 mmHg 77%
    05:00 +29°C° 0.7 mm 5 mps 750 mmHg 74%
    06:00 +30°C° 0 mm 5 mps 750 mmHg 71%
    07:00 +32°C° 0 mm 5 mps 750 mmHg 67%
    08:00 +32°C° 0 mm 5 mps 751 mmHg 64%
    09:00 +34°C° 0 mm 5 mps 751 mmHg 59%
    10:00 +35°C° 0 mm 5 mps 751 mmHg 54%
    11:00 +37°C° 0 mm 5 mps 751 mmHg 49%
    12:00 +37°C° 0 mm 5 mps 750 mmHg 46%
    13:00 +38°C° 0 mm 4 mps 749 mmHg 44%
    14:00 +40°C° 0 mm 4 mps 748 mmHg 41%
    15:00 +40°C° 0 mm 4 mps 748 mmHg 42%
    16:00 +38°C° 0 mm 3 mps 748 mmHg 43%
    17:00 +38°C° 0 mm 3 mps 748 mmHg 43%
    18:00 +37°C° 0.2 mm 3 mps 748 mmHg 48%
    19:00 +35°C° 0.2 mm 3 mps 749 mmHg 54%
    20:00 +34°C° 0.2 mm 3 mps 749 mmHg 59%
    21:00 +33°C° 0.1 mm 3 mps 749 mmHg 61%
    22:00 +33°C° 0.1 mm 4 mps 750 mmHg 64%
    23:00 +32°C° 0.1 mm 4 mps 750 mmHg 66%

    Day after tomorrow, 18 July, Thursday

    Time Temperature Precipitation Wind Pressure Humidity
    00:00 +32°C° 0.4 mm 4 mps 749 mmHg 67%
    01:00 +32°C° 0.4 mm 4 mps 749 mmHg 67%
    02:00 +32°C° 0.4 mm 4 mps 748 mmHg 67%
    03:00 +32°C° 0.4 mm 4 mps 748 mmHg 67%
    04:00 +32°C° 0.4 mm 4 mps 748 mmHg 66%
    05:00 +32°C° 0.4 mm 4 mps 748 mmHg 65%
    06:00 +32°C° 0.3 mm 4 mps 749 mmHg 64%
    07:00 +32°C° 0.3 mm 5 mps 749 mmHg 63%
    08:00 +33°C° 0.3 mm 5 mps 750 mmHg 62%
    09:00 +34°C° 0 mm 5 mps 750 mmHg 58%
    10:00 +35°C° 0 mm 5 mps 750 mmHg 54%
    11:00 +36°C° 0 mm 5 mps 750 mmHg 50%
    12:00 +36°C° 0.5 mm 5 mps 749 mmHg 51%
    13:00 +36°C° 0.5 mm 5 mps 749 mmHg 52%
    14:00 +35°C° 0.5 mm 4 mps 748 mmHg 52%
    15:00 +34°C° 3 mm 5 mps 748 mmHg 61%
    16:00 +32°C° 3 mm 5 mps 747 mmHg 70%
    17:00 +29°C° 3 mm 6 mps 747 mmHg 78%
    18:00 +30°C° 0.3 mm 5 mps 747 mmHg 75%
    19:00 +30°C° 0.3 mm 4 mps 748 mmHg 72%
    20:00 +30°C° 0.3 mm 4 mps 748 mmHg 69%
    21:00 +30°C° 0.5 mm 4 mps 748 mmHg 70%
    22:00 +30°C° 0.5 mm 3 mps 748 mmHg 70%
    23:00 +30°C° 0.5 mm 3 mps 749 mmHg 71%

    19 July, Friday

    Time Temperature Precipitation Wind Pressure Humidity
    00:00 +30°C° 0.4 mm 3 mps 748 mmHg 71%
    01:00 +30°C° 0.4 mm 3 mps 748 mmHg 72%
    02:00 +29°C° 0.4 mm 3 mps 747 mmHg 73%
    03:00 +29°C° 0.2 mm 2 mps 747 mmHg 73%
    04:00 +29°C° 0.2 mm 2 mps 747 mmHg 74%
    05:00 +29°C° 0.2 mm 2 mps 747 mmHg 74%
    06:00 +30°C° 0 mm 3 mps 748 mmHg 70%
    07:00 +31°C° 0 mm 3 mps 748 mmHg 66%
    08:00 +33°C° 0 mm 4 mps 749 mmHg 62%
    09:00 +34°C° 0 mm 4 mps 749 mmHg 57%
    10:00 +35°C° 0 mm 4 mps 749 mmHg 53%
    11:00 +37°C° 0 mm 4 mps 748 mmHg 48%
    12:00 +37°C° 0 mm 4 mps 748 mmHg 46%
    13:00 +38°C° 0 mm 3 mps 747 mmHg 44%
    14:00 +38°C° 0 mm 3 mps 747 mmHg 42%
    15:00 +37°C° 0.2 mm 3 mps 746 mmHg 49%
    16:00 +35°C° 0.2 mm 3 mps 746 mmHg 57%
    17:00 +33°C° 0.2 mm 4 mps 746 mmHg 64%
    18:00 +33°C° 0.5 mm 3 mps 746 mmHg 66%
    19:00 +33°C° 0.5 mm 3 mps 747 mmHg 67%
    20:00 +31°C° 0.5 mm 3 mps 748 mmHg 69%
    21:00 +31°C° 0.6 mm 3 mps 748 mmHg 70%
    22:00 +32°C° 0.6 mm 4 mps 748 mmHg 70%
    23:00 +32°C° 0.6 mm 5 mps 748 mmHg 71%

    20 July, Saturday

    Time Temperature Precipitation Wind Pressure Humidity
    00:00 +32°C° 0 mm 5 mps 748 mmHg 72%
    01:00 +30°C° 0 mm 5 mps 747 mmHg 72%
    02:00 +30°C° 0 mm 5 mps 746 mmHg 72%
    03:00 +30°C° 0.1 mm 4 mps 747 mmHg 72%
    04:00 +30°C° 0.1 mm 4 mps 747 mmHg 73%
    05:00 +30°C° 0.1 mm 4 mps 747 mmHg 74%
    06:00 +32°C° 0 mm 4 mps 747 mmHg 68%
    07:00 +33°C° 0 mm 5 mps 748 mmHg 63%
    08:00 +34°C° 0 mm 5 mps 748 mmHg 58%
    09:00 +35°C° 0 mm 5 mps 748 mmHg 53%
    10:00 +37°C° 0 mm 4 mps 748 mmHg 49%
    11:00 +38°C° 0 mm 4 mps 748 mmHg 44%
    12:00 +38°C° 0.1 mm 4 mps 748 mmHg 45%
    13:00 +38°C° 0.1 mm 4 mps 747 mmHg 45%
    14:00 +38°C° 0.1 mm 3 mps 746 mmHg 45%
    15:00 +36°C° 0.5 mm 4 mps 746 mmHg 52%
    16:00 +35°C° 0.5 mm 4 mps 746 mmHg 59%
    17:00 +33°C° 0.5 mm 4 mps 746 mmHg 65%
    18:00 +33°C° 0.7 mm 4 mps 746 mmHg 68%
    19:00 +32°C° 0.7 mm 5 mps 747 mmHg 71%
    20:00 +32°C° 0.7 mm 5 mps 748 mmHg 73%
    21:00 +32°C° 0.2 mm 5 mps 748 mmHg 73%
    22:00 +32°C° 0.2 mm 4 mps 748 mmHg 73%
    23:00 +32°C° 0.2 mm 4 mps 748 mmHg 73%

    21 July, Sunday

    Time Temperature Precipitation Wind Pressure Humidity
    00:00 +32°C° 0.1 mm 4 mps 747 mmHg 73%
    01:00 +30°C° 0.1 mm 3 mps 747 mmHg 73%
    02:00 +30°C° 0.1 mm 3 mps 747 mmHg 73%
    03:00 +30°C° 0 mm 3 mps 747 mmHg 72%
    04:00 +30°C° 0 mm 3 mps 747 mmHg 71%
    05:00 +30°C° 0 mm 3 mps 747 mmHg 70%
    06:00 +32°C° 0 mm 4 mps 747 mmHg 67%
    07:00 +33°C° 0 mm 5 mps 748 mmHg 64%
    08:00 +33°C° 0 mm 5 mps 748 mmHg 61%
    09:00 +35°C° 0 mm 5 mps 748 mmHg 57%
    10:00 +36°C° 0 mm 5 mps 748 mmHg 53%
    11:00 +37°C° 0 mm 4 mps 748 mmHg 48%
    12:00 +37°C° 0.1 mm 4 mps 748 mmHg 49%
    13:00 +37°C° 0.1 mm 4 mps 747 mmHg 49%
    14:00 +37°C° 0.1 mm 4 mps 746 mmHg 49%
    15:00 +35°C° 1.4 mm 3 mps 746 mmHg 59%
    16:00 +32°C° 1.4 mm 2 mps 746 mmHg 69%
    17:00 +30°C° 1.4 mm 2 mps 746 mmHg 78%
    18:00 +30°C° 0.2 mm 2 mps 747 mmHg 78%
    19:00 +30°C° 0.2 mm 2 mps 747 mmHg 78%
    20:00 +30°C° 0.2 mm 3 mps 748 mmHg 78%
    21:00 +30°C° 0.1 mm 3 mps 748 mmHg 77%
    22:00 +30°C° 0.1 mm 3 mps 748 mmHg 77%
    23:00 +30°C° 0.1 mm 4 mps 748 mmHg 77%
    Show more